Location: Mentone
(34.5413°N, 85.5351°W)
Time: 06:51:45
(UTC-05:00)

AO-Echo - Visible Passes

Search period start: 01 August 2014 00:00
Search period end: 11 August 2014 00:00
Orbit: 695 x 813 km, 98.3° (Epoch: 31 July)

Date Brightness Start Highest point End Pass type
(mag) Time Alt. Az. Time Alt. Az. Time Alt. Az.
01 Aug ? 01:49:37 10° NE 01:51:29 16° ENE 01:51:29 16° ENE visible
01 Aug ? 03:27:06 10° N 03:31:27 41° WNW 03:31:27 41° WNW visible
02 Aug ? 02:46:50 10° NNE 02:50:48 55° NE 02:50:48 55° NE visible
02 Aug ? 04:28:50 10° NW 04:29:51 11° WNW 04:30:46 10° WNW visible
03 Aug ? 02:07:26 10° NE 02:10:10 23° ENE 02:10:10 23° ENE visible
03 Aug ? 03:46:09 10° NNW 03:50:08 27° WNW 03:50:08 27° WNW visible
04 Aug ? 03:05:30 10° N 03:09:29 55° NNW 03:09:29 55° NNW visible
05 Aug ? 02:25:39 10° NNE 02:28:51 33° ENE 02:28:51 33° ENE visible
05 Aug ? 04:05:30 10° NNW 04:08:41 18° WNW 04:08:48 17° WNW visible
06 Aug ? 01:47:02 10° NE 01:48:12 13° ENE 01:48:12 13° ENE visible
06 Aug ? 03:24:19 10° N 03:28:10 40° NW 03:28:10 40° NW visible
07 Aug ? 02:44:05 10° NNE 02:47:31 44° NE 02:47:31 44° NE visible
07 Aug ? 04:25:47 10° NW 04:27:03 11° WNW 04:27:28 11° WNW visible
08 Aug ? 02:04:46 10° NE 02:06:52 20° ENE 02:06:52 20° ENE visible
08 Aug ? 03:43:20 10° NNW 03:46:50 27° NW 03:46:50 27° NW visible
09 Aug ? 03:02:43 10° N 03:06:11 46° N 03:06:11 46° N visible
10 Aug ? 02:22:55 10° NNE 02:25:32 28° NE 02:25:32 28° NE visible
10 Aug ? 04:02:38 10° NNW 04:05:29 18° WNW 04:05:29 18° WNW visible
